Stations météo

Publicité
Dieppe, France (7040): Température de l'air & dewpoint: 25.10.2020 23:00:00 - 31.10.2020 23:00:00 (CET)Dieppe, France (7040): Température de l'air 5cm: 25.10.2020 23:00:00 - 31.10.2020 23:00:00 (CET)Dieppe, France (7040): Vitesse du vent & gusts: 25.10.2020 23:00:00 - 31.10.2020 23:00:00 (CET)Dieppe, France (7040): Direction du vent: 25.10.2020 23:00:00 - 31.10.2020 23:00:00 (CET)Dieppe, France (7040): reduced air pressure: 25.10.2020 23:00:00 - 31.10.2020 23:00:00 (CET)Dieppe, France (7040): visibility: 25.10.2020 23:00:00 - 31.10.2020 23:00:00 (CET)Dieppe, France (7040): Quantités de précipitations: 25.10.2020 23:00:00 - 31.10.2020 23:00:00 (CET)
Date & Time tt [°C] td [°C] tt 5cm [°C] ff [km/h] ff [knt] fx [km/h] fx [knt] dd ppp [hPa] vv [km] rr [mm]
31.10.2020 23:00:00 11,4 8,1 10,4 15 8 24 13 S 1015,6 - 0,0
31.10.2020 22:00:00 11,3 8,0 10,3 16 8 23 13 S 1015,6 15 0,0
31.10.2020 21:00:00 11,7 8,2 10,6 14 7 31 17 SSW 1015,1 - 0,0
31.10.2020 20:00:00 12,4 8,7 11,0 16 9 35 19 SSW 1015,0 - 0,0
31.10.2020 19:00:00 13,0 10,0 11,8 20 11 39 21 SW 1014,6 - 0,0
31.10.2020 18:00:00 13,6 11,1 12,5 27 14 58 32 SW 1014,0 - 0,0
31.10.2020 17:00:00 14,6 12,6 13,6 38 20 61 33 WSW 1013,2 - 1,6
31.10.2020 16:00:00 15,6 13,4 14,2 28 15 56 30 S 1011,7 - 0,8
31.10.2020 15:00:00 16,7 12,6 14,8 31 17 67 36 S 1011,7 - 0,0
31.10.2020 14:00:00 17,5 12,2 15,7 34 18 62 33 S 1011,6 - 0,0
31.10.2020 13:00:00 17,3 11,8 15,1 27 15 55 30 S 1012,5 20 0,0
31.10.2020 12:00:00 16,4 11,3 14,1 27 15 55 30 S 1014,1 - 0,0
31.10.2020 11:00:00 14,8 10,8 13,5 23 12 50 27 SSE 1015,1 - 0,0
31.10.2020 10:00:00 14,4 10,4 12,3 24 13 48 26 SSE 1016,0 20 0,0
31.10.2020 09:00:00 13,4 10,4 11,7 19 10 37 20 S 1017,4 - 0,0
31.10.2020 08:00:00 12,9 10,4 11,8 16 9 40 22 SSE 1017,5 - 0,0
31.10.2020 07:00:00 13,5 10,7 12,3 13 7 26 14 S 1018,4 - 0,0
31.10.2020 06:00:00 13,5 10,5 12,2 12 7 26 14 S 1019,3 - 0,0
31.10.2020 05:00:00 13,6 10,0 12,3 12 6 27 14 S 1019,7 - 0,0
31.10.2020 04:00:00 13,6 9,8 12,3 10 5 21 12 S 1020,3 - 0,0
31.10.2020 03:00:00 13,5 10,1 12,3 11 6 19 10 S 1021,3 - 0,0
31.10.2020 02:00:00 13,8 9,8 12,5 12 6 27 14 S 1022,1 - 0,0
31.10.2020 01:00:00 14,3 9,1 12,6 16 9 29 16 S 1022,4 15 0,0
31.10.2020 00:00:00 14,3 9,9 12,8 13 7 26 14 S 1022,8 - 0,0
30.10.2020 23:00:00 14,4 11,0 12,9 14 8 28 15 S 1022,8 - 0,0
30.10.2020 22:00:00 14,5 11,1 13,1 16 9 29 16 S 1022,8 15 0,0
30.10.2020 21:00:00 14,7 11,5 13,5 14 7 24 13 S 1022,8 - 0,0
30.10.2020 20:00:00 15,1 11,7 13,6 15 8 25 13 S 1022,7 - 0,0
30.10.2020 19:00:00 15,4 12,0 13,9 13 7 27 15 SSW 1022,6 8 0,0
30.10.2020 18:00:00 15,7 12,1 14,1 15 8 32 17 SSW 1022,4 - 0,0
30.10.2020 17:00:00 16,1 12,5 14,5 14 8 27 15 SSW 1021,9 - 0,0
30.10.2020 16:00:00 16,3 12,3 15,0 14 7 29 16 SSW 1021,8 - 0,0
30.10.2020 15:00:00 16,4 12,2 15,2 15 8 38 21 SSW 1021,6 - 0,0
30.10.2020 14:00:00 16,0 12,0 15,2 17 9 37 20 SSW 1021,5 - 0,0
30.10.2020 13:00:00 16,1 12,3 15,0 19 10 40 21 SSW 1021,4 - 0,0
30.10.2020 12:00:00 15,7 12,1 14,7 19 11 37 20 SSW 1021,4 - 0,0
30.10.2020 11:00:00 15,2 12,1 14,0 23 12 46 25 SSW 1021,0 - 0,0
30.10.2020 10:00:00 14,4 12,4 13,2 18 10 44 24 SSW 1020,9 18 0,0
30.10.2020 09:00:00 13,9 12,3 13,0 21 11 42 23 SSW 1020,4 - 0,0
30.10.2020 08:00:00 13,9 12,3 13,0 20 11 41 22 SSW 1020,1 - 0,0
30.10.2020 07:00:00 14,4 12,1 13,0 19 11 41 22 SSW 1019,6 14 0,0
30.10.2020 06:00:00 14,0 12,2 12,8 22 12 48 26 SSW 1019,5 - 0,0
30.10.2020 05:00:00 14,2 11,7 12,7 21 12 43 23 SSW 1019,2 - 0,0
30.10.2020 04:00:00 14,4 11,4 12,7 21 11 37 20 SSW 1018,9 - 0,0
30.10.2020 03:00:00 14,3 11,4 12,8 18 10 38 21 SSW 1019,0 - 0,0
30.10.2020 02:00:00 14,5 11,5 12,7 21 11 41 22 SSW 1019,0 - 0,0
30.10.2020 01:00:00 14,6 11,4 12,7 22 12 44 24 SSW 1018,9 14 0,0
30.10.2020 00:00:00 14,5 11,8 12,9 22 12 44 24 SSW 1018,4 - 0,0
29.10.2020 23:00:00 14,3 12,2 12,9 22 12 39 21 SSW 1018,4 - 0,0
29.10.2020 22:00:00 14,4 12,4 12,9 19 11 39 21 SSW 1018,5 14 0,0
29.10.2020 21:00:00 14,4 12,4 12,9 21 11 42 23 SW 1018,2 - 0,0
29.10.2020 20:00:00 13,5 12,9 13,0 13 7 37 20 SW 1018,5 - 0,8
29.10.2020 19:00:00 14,6 12,3 13,0 20 11 37 20 SSW 1017,7 - 0,0
29.10.2020 18:00:00 14,1 12,3 13,0 20 11 44 24 SSW 1017,1 - 0,0
29.10.2020 17:00:00 14,5 11,8 13,3 22 12 44 24 SSW 1017,1 - 0,0
29.10.2020 16:00:00 14,4 11,7 13,3 21 11 42 23 SSW 1017,3 - 0,0
29.10.2020 15:00:00 14,0 11,3 12,9 20 11 40 22 S 1017,3 - 0,0
29.10.2020 14:00:00 13,3 10,7 12,3 23 12 42 23 SSW 1017,6 - 0,0
29.10.2020 13:00:00 12,6 10,5 12,1 20 11 37 20 S 1017,8 - 0,0
29.10.2020 12:00:00 12,8 10,7 12,3 18 10 36 19 SSW 1018,4 - 0,0
29.10.2020 11:00:00 12,3 10,9 11,7 18 10 36 19 SSW 1018,4 - 0,2
29.10.2020 10:00:00 11,7 10,9 11,0 18 10 31 17 SSW 1018,2 14 0,0
29.10.2020 09:00:00 11,4 10,3 10,5 17 9 31 17 SSW 1017,6 - 0,0
29.10.2020 08:00:00 11,0 9,9 10,5 15 8 34 18 SSW 1016,6 - 0,0
29.10.2020 07:00:00 11,3 10,0 10,6 19 10 40 22 SSW 1016,0 - 0,0
29.10.2020 06:00:00 11,3 9,9 10,6 18 10 35 19 SW 1015,5 - 1,4
29.10.2020 05:00:00 11,0 9,9 10,4 14 7 48 26 SSW 1014,7 - 1,2
29.10.2020 04:00:00 12,0 9,2 10,3 24 13 44 24 SW 1013,7 12 0,0
29.10.2020 03:00:00 11,8 9,9 10,3 24 13 44 24 SW 1013,4 - 0,4
29.10.2020 02:00:00 11,6 9,5 10,5 28 15 45 24 SW 1012,6 - 0,6
29.10.2020 01:00:00 11,2 9,8 10,2 21 11 44 24 SW 1012,0 - 1,4
29.10.2020 00:00:00 11,2 9,3 10,1 20 11 45 24 SSW 1011,0 - 0,4
28.10.2020 23:00:00 11,5 8,7 10,0 19 10 46 25 SSW 1010,5 - 0,0
28.10.2020 22:00:00 11,8 8,3 10,2 29 16 48 26 SW 1010,0 12 0,0
28.10.2020 21:00:00 11,6 9,0 10,3 27 15 67 36 SW 1009,3 - 2,6
28.10.2020 20:00:00 11,5 9,6 10,6 25 14 54 29 SSW 1008,8 - 0,6
28.10.2020 19:00:00 11,9 9,8 10,7 27 15 49 26 SW 1007,8 - 1,2
28.10.2020 18:00:00 12,1 9,7 10,7 25 13 66 36 SW 1007,2 - 2,6
28.10.2020 17:00:00 13,3 8,8 11,1 25 13 48 26 SSW 1006,9 - 0,0
28.10.2020 16:00:00 13,7 9,1 11,1 27 15 54 29 SSW 1006,6 - 0,2
28.10.2020 15:00:00 11,9 9,6 10,3 14 8 29 15 SSW 1007,1 - 0,2
28.10.2020 14:00:00 9,9 8,2 9,8 24 13 68 37 SW 1007,9 - 2,0
28.10.2020 13:00:00 13,5 9,0 11,4 24 13 62 33 SSW 1007,5 15 0,2
28.10.2020 12:00:00 13,0 8,7 10,9 31 17 60 33 SSW 1008,1 - 0,2
28.10.2020 11:00:00 11,9 8,4 10,4 26 14 49 26 SSW 1008,1 - 0,0
28.10.2020 10:00:00 11,1 8,5 9,5 26 14 47 26 S 1007,3 15 0,0
28.10.2020 09:00:00 10,2 8,1 8,8 24 13 48 26 S 1007,2 - 0,0
28.10.2020 08:00:00 9,8 7,9 8,8 24 13 40 21 S 1006,7 - 0,0
28.10.2020 07:00:00 9,9 8,2 8,9 19 11 37 20 S 1006,5 15 0,0
28.10.2020 06:00:00 9,6 7,7 8,9 24 13 67 36 SW 1006,3 - 2,0
28.10.2020 05:00:00 11,1 8,8 9,9 18 10 35 19 SSW 1005,9 - 0,0
28.10.2020 04:00:00 11,2 9,1 10,0 19 11 38 20 SSW 1005,5 15 0,0
28.10.2020 03:00:00 11,3 9,4 10,2 19 11 35 19 SSW 1005,0 - 0,0
28.10.2020 02:00:00 11,1 9,7 10,3 17 9 36 19 S 1004,7 - 0,0
28.10.2020 01:00:00 11,4 9,6 10,4 22 12 35 19 S 1004,4 - 0,0
28.10.2020 00:00:00 11,4 9,8 10,1 17 9 29 15 S 1004,1 - 0,0
27.10.2020 23:00:00 11,4 9,1 10,1 16 9 32 17 S 1003,6 - 0,0
27.10.2020 22:00:00 12,2 9,6 10,7 16 9 38 21 SSW 1003,3 15 0,0
27.10.2020 21:00:00 13,1 10,1 11,3 26 14 42 23 SW 1002,4 - 0,2
27.10.2020 20:00:00 13,6 11,8 12,3 22 12 41 22 SW 1001,4 - 0,0
27.10.2020 19:00:00 13,4 12,0 12,1 23 12 42 23 SW 1000,3 10 0,8
27.10.2020 18:00:00 12,5 11,9 11,8 27 15 47 26 S 998,8 - 0,8
27.10.2020 17:00:00 12,2 11,3 11,5 24 13 48 26 S 998,6 - 0,0
27.10.2020 16:00:00 11,7 10,6 11,4 26 14 56 30 S 999,2 18 0,0
27.10.2020 15:00:00 11,5 10,1 11,2 33 18 61 33 S 999,6 - 0,0
27.10.2020 14:00:00 11,0 9,9 10,6 24 13 56 30 S 1000,4 - 0,4
27.10.2020 13:00:00 11,0 9,1 11,0 27 15 56 30 S 1001,5 - 0,2
27.10.2020 12:00:00 10,8 8,6 10,4 23 12 48 26 S 1002,9 - 0,0
27.10.2020 11:00:00 10,4 8,2 9,1 24 13 44 24 S 1003,7 - 0,0
27.10.2020 10:00:00 9,5 7,4 8,8 23 12 40 21 S 1004,2 18 0,0
27.10.2020 09:00:00 9,1 7,5 8,6 20 11 39 21 S 1004,5 - 0,0
27.10.2020 08:00:00 9,1 7,7 8,6 21 12 38 20 S 1004,5 - 0,0
27.10.2020 07:00:00 9,1 7,9 8,6 19 10 39 21 S 1004,4 9 0,2
27.10.2020 06:00:00 9,1 8,0 8,5 20 11 39 21 S 1004,5 - 0,2
27.10.2020 05:00:00 9,1 7,9 8,5 21 11 39 21 SSW 1004,2 - 0,2
27.10.2020 04:00:00 8,9 8,0 8,6 18 10 35 19 S 1004,3 9 1,2
27.10.2020 03:00:00 9,1 8,0 8,7 21 11 37 20 S 1004,4 - 1,6
27.10.2020 02:00:00 9,4 7,7 8,6 22 12 39 21 SSW 1004,5 - 0,2
27.10.2020 01:00:00 9,6 7,9 8,3 6 4 26 14 SSW 1004,7 - 1,7
27.10.2020 00:00:00 9,2 7,8 8,2 12 7 34 19 S 1005,2 - 2,4
26.10.2020 23:00:00 8,8 7,1 8,1 18 10 32 17 S 1004,4 - 0,0
26.10.2020 22:00:00 8,7 7,0 8,2 22 12 36 20 S 1004,1 9 0,2
26.10.2020 21:00:00 10,0 8,4 9,3 19 10 35 19 S 1003,5 - 0,4
26.10.2020 20:00:00 10,2 9,3 9,7 10 5 31 17 SSW 1003,6 - 2,1
26.10.2020 19:00:00 10,3 9,1 9,6 18 10 34 18 S 1002,9 - 0,6
26.10.2020 18:00:00 10,4 9,3 10,0 10 5 41 22 SW 1002,7 - 3,4
26.10.2020 17:00:00 11,0 8,9 9,8 23 12 41 22 SSW 1001,9 - 0,0
26.10.2020 16:00:00 10,8 8,7 9,9 22 12 41 22 S 1001,6 - 2,0
26.10.2020 15:00:00 10,8 9,1 10,2 19 10 42 23 SSW 1001,7 - 1,6
26.10.2020 14:00:00 11,5 8,7 9,9 20 11 42 23 SSW 1001,6 - 0,4
26.10.2020 13:00:00 10,5 8,6 9,7 21 11 39 21 S 1001,8 - 0,8
26.10.2020 12:00:00 10,3 8,2 9,4 19 10 46 25 SSW 1002,1 - 0,2
26.10.2020 11:00:00 10,1 7,9 9,6 23 13 48 26 SSW 1001,6 - 0,6
26.10.2020 10:00:00 9,9 7,0 7,9 24 13 43 23 S 1001,5 10 0,0
26.10.2020 09:00:00 8,2 6,5 7,4 22 12 40 22 S 1001,2 - 0,0
26.10.2020 08:00:00 7,9 6,5 7,3 19 11 37 20 S 1001,0 - 1,6
26.10.2020 07:00:00 7,9 6,0 7,3 22 12 38 21 SSW 1000,2 17 0,0
26.10.2020 06:00:00 8,0 6,3 7,4 23 12 39 21 S 999,7 - 0,0
26.10.2020 05:00:00 8,2 6,3 7,7 19 11 37 20 S 999,9 - 0,2
26.10.2020 04:00:00 8,4 6,5 7,7 22 12 39 21 S 999,8 20 0,0
26.10.2020 03:00:00 8,4 6,7 7,9 18 10 33 18 S 999,9 - 0,0
26.10.2020 02:00:00 8,8 6,9 8,1 19 10 38 20 S 999,9 - 0,0
26.10.2020 01:00:00 8,8 6,9 8,2 21 12 36 19 S 1000,3 - 0,0
26.10.2020 00:00:00 8,8 7,1 8,3 16 9 32 17 S 1000,2 - 0,0
25.10.2020 23:00:00 9,1 7,2 8,5 18 10 31 17 S 1000,5 - 0,0

tt = Température de l'air
td = dewpoint
tt 5cm = Température de l'air 5cm
ff = Vitesse du vent
fx = gusts
dd = Direction du vent
ppp = reduced air pressure
vv = visibility
rr = Quantités de précipitations

stations d'obs. à proximité